Regional Weather Roundup
Issued by NWS

Home | Current Version | Previous Version | Text Only | Print | Product List | Glossary On
Versions: 1 2 3 4 5 6 7 8 9 10 11 12 13 14 15 16 17 18 19 20 21 22 23 24 25 26 27 28 29 30 31 32 33 34 35 36 37 38 39 40 41 42 43 44 45 46 47 48 49 50
000
ASUS43 KLSX 181907
RWRMO

WEATHER SUMMARY FOR MISSOURI
NATIONAL WEATHER SERVICE SPRINGFIELD MO
200 PM CDT WED MAY 18 2022

NOTE: "FAIR" INDICATES FEW OR NO CLOUDS BELOW 12,000 FEET WITH NO
       SIGNIFICANT WEATHER AND/OR OBSTRUCTIONS TO VISIBILITY.
       CURRENT SKY AND/OR WEATHER CONDITIONS ARE NOT AVAILABLE FOR
       CHILLICOTHE AND FARMINGTON.

MOZ001>031-035>038-043-044-053-054-182000-
...NORTHERN AND WESTERN MISSOURI...

CITY           SKY/WX    TMP DP  RH WIND       PRES   REMARKS
KANSAS CTY INT MOSUNNY   80  66  62 N10       29.86S
KANSAS C DTWN  MOSUNNY   79  64  60 W9        29.84S
LEE`S SUMMIT   MOSUNNY   78  64  61 W10       29.86
ST JOSEPH        N/A     80  61  52 N12       29.84F
CHILLICOTHE      N/A     78  64  61 VRB3      29.84F
KIRKSVILLE     CLOUDY    72  63  73 NW8       29.83R

$$
MOZ066>068-077>081-088>096-101>105-182000-
...SOUTHWEST MISSOURI...

CITY           SKY/WX    TMP DP  RH WIND       PRES   REMARKS
SPRINGFIELD    SUNNY     83  69  62 NW7       29.85F
JOPLIN         MOSUNNY   83  73  72 NW10      29.85F
BRANSON        MOSUNNY   84  72  65 NW9       29.87S

$$
MOZ032>034-039>042-045>050-055>058-069>072-182000-
...CENTRAL MISSOURI...

CITY           SKY/WX    TMP DP  RH WIND       PRES   REMARKS
COLUMBIA       PTSUNNY   79  65  62 W10       29.83F
JEFFERSON CITY PTSUNNY   80  62  54 W9        29.82F
ROLLA          PTSUNNY   78  65  63 W13       29.86S
SEDALIA        MOSUNNY   78  66  66 NW9       29.86S
WHITEMAN AFB   MOSUNNY   79  65  62 W7        29.81S
WARRENSBURG    MOSUNNY   77  63  61 SW9       29.85F

$$
MOZ051-052-059>065-182000-
...EAST CENTRAL MISSOURI...

CITY           SKY/WX    TMP DP  RH WIND       PRES   REMARKS
ST LOUIS INTL  PTSUNNY   78  65  63 W10       29.79F
SPIRIT OF STL  PTSUNNY   81  66  60 W14       29.78F
ST CHARLES     PTSUNNY   74  66  76 W7        29.78F

$$
MOZ072>076-082>087-097>100-106>115-182000-
...SOUTH CENTRAL AND SOUTHEAST MISSOURI...

CITY           SKY/WX    TMP DP  RH WIND       PRES   REMARKS
CAPE GIRARDEAU PTSUNNY   85  66  53 SW16G24   29.81
FARMINGTON     MOSUNNY   80  63  55 NW10G16   29.84S
POPLAR BLUFF   PTSUNNY   86  67  52 SW10      29.81F
WEST PLAINS    SUNNY     83  69  62 W7        29.87F

$$



USA.gov is the U.S. government's official web portal to all federal, state and local government web resources and services.